Weather History for KAFJ - January, 2014

Change the Weather History Date:

Sunday, January 12, 2014

  Actual Average (KHLG) Record (KHLG)
Temperature  
Mean Temperature 32 °F 29 °F  
Max Temperature 37 °F 36 °F 64 °F (2013)
Min Temperature 26 °F 22 °F 13 °F (2003)
Degree Days  
Heating Degree Days 34 36  
Month to date heating degree days 432  
Since 1 July heating degree days 2557  
Cooling Degree Days 0    
Month to date cooling degree days  
Year to date cooling degree days  
Moisture  
Dew Point 28 °F    
Average Humidity 78    
Maximum Humidity 100    
Minimum Humidity 70    
Precipitation  
Precipitation 0.00 in 0.10 in - ()
Month to date precipitation 1.25  
Sea Level Pressure  
Sea Level Pressure 29.93 in    
Wind  
Wind Speed 10 mph (WSW)    
Max Wind Speed 16 mph    
Max Gust Speed 25 mph    
Visibility 10 miles    
Events      
T = Trace of Precipitation, MM = Missing Value Source: NWS Daily Summary

Daily Weather History Graph

Daily Weather History Graph

Search for Another Location

Airport or City:

Trip Planner

Search our weather history database for the weather conditions in past years. The results will help you decide how hot, cold, wet, or windy it might be!

Date:

Astronomy

Jan. 12, 2014 Rise Set
Actual Time 7:42 AM EST 5:16 PM EST
Civil Twilight 7:12 AM EST 5:46 PM EST
Nautical Twilight 6:38 AM EST 6:20 PM EST
Astronomical Twilight 6:06 AM EST 6:53 PM EST
Moon 2:43 PM EST (1/12) 4:39 AM EST (1/12)
Length of Visible Light 10h 34m
Length of Day
9h 34m
Waxing Gibbous, 89% of the Moon is Illuminated
Jan 12
Waxing Gibbous
Jan 15
Full
Jan 24
Last Quarter
Jan 30
New
Feb 6
First Quarter

Hourly Weather History & Observations

Time (EST) Temp. Windchill Dew Point Humidity Pressure Visibility Wind Dir Wind Speed Gust Speed Precip Events Conditions
12:15 AM 37.4 °F 28.9 °F 28.4 °F 70% 29.71 in 10.0 mi West 13.8 mph 25.3 mph N/A   Overcast
12:35 AM 35.6 °F 26.6 °F 30.2 °F 81% 29.71 in 10.0 mi West 13.8 mph 20.7 mph N/A   Overcast
12:55 AM 35.6 °F 28.6 °F 30.2 °F 81% 29.71 in 10.0 mi WSW 9.2 mph - N/A   Overcast
1:15 AM 35.6 °F 25.9 °F 28.4 °F 75% 29.72 in 10.0 mi WSW 16.1 mph 23.0 mph N/A   Overcast
1:35 AM 35.6 °F 27.5 °F 28.4 °F 75% 29.73 in 10.0 mi WSW 11.5 mph 21.9 mph N/A   Overcast
1:55 AM 35.6 °F 28.0 °F 26.6 °F 70% 29.74 in 10.0 mi WSW 10.4 mph 21.9 mph N/A   Overcast
2:15 AM 35.6 °F 26.6 °F 26.6 °F 70% 29.74 in 10.0 mi WSW 13.8 mph 19.6 mph N/A   Overcast
2:35 AM 35.6 °F 26.2 °F 26.6 °F 70% 29.76 in 10.0 mi WSW 15.0 mph 19.6 mph N/A   Overcast
2:55 AM 35.6 °F 26.2 °F 26.6 °F 70% 29.76 in 10.0 mi WSW 15.0 mph 23.0 mph N/A   Overcast
3:15 AM 35.6 °F 27.5 °F 26.6 °F 70% 29.77 in 10.0 mi WSW 11.5 mph 19.6 mph N/A   Overcast
3:35 AM 35.6 °F 27.5 °F 26.6 °F 70% 29.78 in 10.0 mi WSW 11.5 mph 20.7 mph N/A   Overcast
3:55 AM 33.8 °F 25.3 °F 26.6 °F 75% 29.79 in 10.0 mi WSW 11.5 mph 17.3 mph N/A   Overcast
4:15 AM 35.6 °F 28.6 °F 26.6 °F 70% 29.79 in 10.0 mi WSW 9.2 mph - N/A   Overcast
4:35 AM 35.6 °F 28.6 °F 26.6 °F 70% 29.80 in 10.0 mi WSW 9.2 mph 16.1 mph N/A   Overcast
4:55 AM 35.6 °F 27.1 °F 26.6 °F 70% 29.80 in 10.0 mi WSW 12.7 mph 17.3 mph N/A   Overcast
5:15 AM 35.6 °F 27.5 °F 26.6 °F 70% 29.81 in 10.0 mi WSW 11.5 mph 18.4 mph N/A   Overcast
5:35 AM 33.8 °F 27.0 °F 28.4 °F 81% 29.82 in 10.0 mi West 8.1 mph 18.4 mph N/A   Overcast
5:55 AM 35.6 °F 28.0 °F 28.4 °F 75% 29.82 in 10.0 mi WSW 10.4 mph - N/A   Overcast
6:15 AM 33.8 °F 25.8 °F 28.4 °F 81% 29.84 in 10.0 mi WSW 10.4 mph - N/A   Overcast
6:35 AM 33.8 °F 27.0 °F 28.4 °F 81% 29.84 in 10.0 mi WSW 8.1 mph 17.3 mph N/A   Overcast
6:55 AM 33.8 °F 25.8 °F 28.4 °F 81% 29.85 in 10.0 mi WSW 10.4 mph - N/A   Overcast
7:15 AM 35.6 °F 29.2 °F 28.4 °F 75% 29.87 in 10.0 mi WSW 8.1 mph - N/A   Overcast
7:35 AM 35.6 °F 28.0 °F 28.4 °F 75% 29.88 in 10.0 mi WSW 10.4 mph - N/A   Overcast
7:55 AM 35.6 °F 28.0 °F 28.4 °F 75% 29.89 in 10.0 mi WSW 10.4 mph 17.3 mph N/A   Overcast
8:15 AM 35.6 °F 28.6 °F 28.4 °F 75% 29.90 in 10.0 mi WSW 9.2 mph - N/A   Overcast
8:35 AM 35.6 °F 29.2 °F 28.4 °F 75% 29.91 in 10.0 mi SW 8.1 mph - N/A   Overcast
8:55 AM 35.6 °F 28.6 °F 28.4 °F 75% 29.93 in 10.0 mi WSW 9.2 mph - N/A   Overcast
9:15 AM 35.6 °F 29.2 °F 28.4 °F 75% 29.94 in 10.0 mi SW 8.1 mph - N/A   Overcast
9:35 AM 35.6 °F 28.0 °F 28.4 °F 75% 29.94 in 10.0 mi SW 10.4 mph - N/A   Overcast
9:55 AM 35.6 °F 27.5 °F 28.4 °F 75% 29.96 in 10.0 mi WSW 11.5 mph - N/A   Overcast
10:15 AM 35.6 °F 27.1 °F 28.4 °F 75% 29.97 in 10.0 mi WSW 12.7 mph 16.1 mph N/A   Overcast
10:35 AM 35.6 °F 27.5 °F 28.4 °F 75% 29.98 in 10.0 mi WSW 11.5 mph - N/A   Overcast
10:55 AM 35.6 °F 27.5 °F 28.4 °F 75% 29.98 in 10.0 mi WSW 11.5 mph 17.3 mph N/A   Overcast
11:15 AM 35.6 °F 26.6 °F 28.4 °F 75% 29.98 in 10.0 mi West 13.8 mph 18.4 mph N/A   Overcast
11:35 AM 35.6 °F 28.0 °F 28.4 °F 75% 29.98 in 10.0 mi West 10.4 mph 20.7 mph N/A   Overcast
11:55 AM 35.6 °F 28.6 °F 28.4 °F 75% 29.98 in 10.0 mi WSW 9.2 mph 17.3 mph N/A   Overcast
12:15 PM 35.6 °F 28.0 °F 28.4 °F 75% 29.97 in 10.0 mi West 10.4 mph - N/A   Overcast
12:35 PM 35.6 °F 26.6 °F 28.4 °F 75% 29.97 in 10.0 mi WSW 13.8 mph 19.6 mph N/A   Overcast
12:55 PM 35.6 °F 27.5 °F 28.4 °F 75% 29.97 in 10.0 mi WSW 11.5 mph 19.6 mph N/A   Overcast
1:15 PM 35.6 °F 28.6 °F 28.4 °F 75% 29.98 in 10.0 mi West 9.2 mph 20.7 mph N/A   Overcast
1:35 PM 37.4 °F 29.8 °F 28.4 °F 70% 29.98 in 10.0 mi West 11.5 mph 17.3 mph N/A   Overcast
1:55 PM 37.4 °F 30.3 °F 28.4 °F 70% 29.98 in 10.0 mi WSW 10.4 mph - N/A   Overcast
2:15 PM 37.4 °F 28.9 °F 28.4 °F 70% 29.98 in 10.0 mi WSW 13.8 mph 17.3 mph N/A   Overcast
2:35 PM 37.4 °F 29.3 °F 28.4 °F 70% 29.99 in 10.0 mi WSW 12.7 mph 17.3 mph N/A   Overcast
2:55 PM 37.4 °F 29.3 °F 28.4 °F 70% 30.00 in 10.0 mi West 12.7 mph 16.1 mph N/A   Overcast
3:15 PM 37.4 °F 29.8 °F 28.4 °F 70% 30.01 in 10.0 mi WSW 11.5 mph 17.3 mph N/A   Overcast
3:35 PM 37.4 °F 29.3 °F 28.4 °F 70% 30.01 in 10.0 mi WSW 12.7 mph 17.3 mph N/A   Mostly Cloudy
3:55 PM 37.4 °F 30.8 °F 28.4 °F 70% 30.02 in 10.0 mi WSW 9.2 mph - N/A   Mostly Cloudy
4:15 PM 37.4 °F 32.1 °F 28.4 °F 70% 30.03 in 10.0 mi SW 6.9 mph - N/A   Scattered Clouds
4:35 PM 37.4 °F 32.8 °F 28.4 °F 70% 30.03 in 10.0 mi SW 5.8 mph - N/A   Scattered Clouds
4:55 PM 35.6 °F 31.7 °F 26.6 °F 70% 30.03 in 10.0 mi SW 4.6 mph - N/A   Clear
5:15 PM 35.6 °F 30.7 °F 26.6 °F 70% 30.03 in 10.0 mi SSW 5.8 mph - N/A   Clear
5:35 PM 35.6 °F 31.7 °F 26.6 °F 70% 30.04 in 10.0 mi SW 4.6 mph - N/A   Clear
5:55 PM 33.8 °F - 26.6 °F 75% 30.04 in 10.0 mi Calm Calm - N/A   Clear
6:15 PM 32.0 °F - 26.6 °F 80% 30.04 in 10.0 mi Calm Calm - N/A   Clear
6:35 PM 30.2 °F - 26.6 °F 86% 30.03 in 10.0 mi Calm Calm - N/A   Clear
6:55 PM 28.4 °F - 26.6 °F 93% 30.04 in 10.0 mi Calm Calm - N/A   Clear
7:15 PM 30.2 °F - 26.6 °F 86% 30.03 in 9.0 mi Calm Calm - N/A   Clear
7:35 PM 28.4 °F - 24.8 °F 86% 30.02 in 9.0 mi Calm Calm - N/A   Clear
7:55 PM 28.4 °F - 28.4 °F 100% 30.03 in 10.0 mi Calm Calm - N/A   Clear
8:15 PM 28.4 °F - 26.6 °F 93% 30.03 in 10.0 mi Calm Calm - N/A   Clear
8:35 PM 28.4 °F - 24.8 °F 86% 30.03 in 10.0 mi Calm Calm - N/A   Clear
8:55 PM 28.4 °F - 26.6 °F 93% 30.02 in 10.0 mi Calm Calm - N/A   Clear
9:15 PM 28.4 °F - 26.6 °F 93% 30.03 in 10.0 mi Calm Calm - N/A   Clear
9:35 PM 28.4 °F 24.6 °F 26.6 °F 93% 30.03 in 10.0 mi SSW 3.5 mph - N/A   Clear
9:55 PM 28.4 °F - 28.4 °F 100% 30.02 in 10.0 mi Calm Calm - N/A   Clear
10:15 PM 28.4 °F - 28.4 °F 100% 30.02 in 10.0 mi Calm Calm - N/A   Clear
10:35 PM 28.4 °F 23.3 °F 26.6 °F 93% 30.02 in 10.0 mi SSW 4.6 mph - N/A   Clear
10:55 PM 28.4 °F - 26.6 °F 93% 30.02 in 10.0 mi Calm Calm - N/A   Clear
11:15 PM 26.6 °F - 24.8 °F 93% 30.01 in 10.0 mi Calm Calm - N/A   Clear
11:35 PM 28.4 °F 23.3 °F 26.6 °F 93% 30.00 in 10.0 mi SSW 4.6 mph - N/A   Clear
11:55 PM 28.4 °F 23.3 °F 26.6 °F 93% 30.00 in 10.0 mi SSE 4.6 mph - N/A   Clear